,,Stat5,,Stat1,,Stat2,,Stat3,,Stat4,,Wind1,,Wind1,
time,status,PA1M_AVG,status,PR1M_SUM,status,RH1M_AVG,status,SR1M_AVG,status,TA1M_AVG,status,W1dAve1m,status,W1sAve1m,
2002-03-23, 00:00:01,VALID,916.653,VALID,0,VALID,96.895,VALID,0.0169808,VALID,21.7806,VALID,18,VALID,0.668069,
2002-03-23, 00:01:01,VALID,916.635,VALID,0,VALID,96.867,VALID,0.0339617,VALID,21.7672,VALID,15,VALID,0.602009,
2002-03-23, 00:02:00,VALID,916.62,VALID,0,VALID,96.7462,VALID,0.0169808,VALID,21.7516,VALID,44,VALID,0.339725,
2002-03-23, 00:03:00,VALID,916.601,VALID,0,VALID,96.6686,VALID,0,VALID,21.7289,VALID,102,VALID,0.413007,
2002-03-23, 00:04:00,VALID,916.594,VALID,0,VALID,96.5173,VALID,0.0169808,VALID,21.6807,VALID,146,VALID,0.597873,
2002-03-23, 00:05:00,VALID,916.598,VALID,0,VALID,96.5275,VALID,0.0169808,VALID,21.6673,VALID,23,VALID,0.204564,
2002-03-23, 00:06:00,VALID,916.603,VALID,0,VALID,96.5186,VALID,0,VALID,21.6678,VALID,337,VALID,0.0597551,
2002-03-23, 00:07:00,VALID,916.625,VALID,0,VALID,96.5059,VALID,0,VALID,21.6476,VALID,306,VALID,0,
2002-03-23, 00:08:01,VALID,916.616,VALID,0,VALID,96.3864,VALID,0.0339617,VALID,21.6511,VALID,350,VALID,0.210732,
2002-03-23, 00:09:00,VALID,916.623,VALID,0,VALID,96.3686,VALID,0.0169808,VALID,21.6317,VALID,303,VALID,0.156461,
2002-03-23, 00:10:01,VALID,916.623,VALID,0,VALID,96.408,VALID,0,VALID,21.639,VALID,296,VALID,0.00740132,
2002-03-23, 00:11:00,VALID,916.64,VALID,0,VALID,96.4512,VALID,-0.101885,VALID,21.6266,VALID,321,VALID,0,
2002-03-23, 00:12:00,VALID,916.638,VALID,0,VALID,96.53,VALID,-0.101885,VALID,21.636,VALID,23,VALID,0.158036,
2002-03-23, 00:13:01,VALID,916.639,VALID,0,VALID,96.5351,VALID,-0.0849042,VALID,21.6624,VALID,23,VALID,0,
2002-03-23, 00:14:00,VALID,916.647,VALID,0,VALID,96.4334,VALID,-0.0849042,VALID,21.6457,VALID,20,VALID,0.191525,
2002-03-23, 00:15:00,VALID,916.632,VALID,0,VALID,96.4703,VALID,-0.0849042,VALID,21.656,VALID,17,VALID,0,
2002-03-23, 00:16:00,VALID,916.628,VALID,0,VALID,96.5326,VALID,-0.0849042,VALID,21.6525,VALID,31,VALID,0.427365,
2002-03-23, 00:17:00,VALID,916.617,VALID,0,VALID,96.5784,VALID,-0.0849042,VALID,21.6522,VALID,15,VALID,0.34924,
2002-03-23, 00:18:00,VALID,916.605,VALID,0,VALID,96.5962,VALID,-0.101885,VALID,21.6751,VALID,15,VALID,0.0430743,
2002-03-23, 00:19:01,VALID,916.589,VALID,0,VALID,96.5707,VALID,-0.0679233,VALID,21.6619,VALID,15,VALID,0.016276,
2002-03-23, 00:20:01,VALID,916.586,VALID,0,VALID,96.5364,VALID,-0.0679233,VALID,21.6683,VALID,13,VALID,0.396234,
2002-03-23, 00:21:00,VALID,916.571,VALID,0,VALID,96.4703,VALID,-0.0679233,VALID,21.6492,VALID,11,VALID,0.102407,
2002-03-23, 00:22:00,VALID,916.564,VALID,0,VALID,96.4054,VALID,-0.0679233,VALID,21.6199,VALID,50,VALID,0.521875,
2002-03-23, 00:23:01,VALID,916.55,VALID,0,VALID,96.4334,VALID,-0.0679233,VALID,21.597,VALID,40,VALID,0.3125,
2002-03-23, 00:24:00,VALID,916.549,VALID,0,VALID,96.5211,VALID,-0.0849042,VALID,21.5843,VALID,63,VALID,0.271115,
2002-03-23, 00:25:01,VALID,916.553,VALID,0,VALID,96.4105,VALID,-0.101885,VALID,21.5849,VALID,79,VALID,0.750206,
2002-03-23, 00:26:01,VALID,916.563,VALID,0,VALID,96.4105,VALID,0.0339617,VALID,21.5536,VALID,25,VALID,0.246622,
2002-03-23, 00:27:00,VALID,916.558,VALID,0,VALID,96.4334,VALID,0.0339617,VALID,21.5506,VALID,74,VALID,0.196205,
2002-03-23, 00:28:01,VALID,916.542,VALID,0,VALID,96.3317,VALID,0.0339617,VALID,21.5439,VALID,147,VALID,0.296074,
2002-03-23, 00:29:00,VALID,916.517,VALID,0,VALID,96.2948,VALID,0.0339617,VALID,21.5046,VALID,73,VALID,0.364347,
2002-03-23, 00:30:00,VALID,916.489,VALID,0,VALID,96.3342,VALID,0.0169808,VALID,21.5121,VALID,19,VALID,0.921415,
2002-03-23, 00:31:00,VALID,916.456,VALID,0,VALID,96.4054,VALID,0.0509425,VALID,21.4952,VALID,25,VALID,0.640414,
2002-03-23, 00:32:01,VALID,916.432,VALID,0,VALID,96.3749,VALID,0.0509425,VALID,21.479,VALID,23,VALID,0.686444,
2002-03-23, 00:33:01,VALID,916.421,VALID,0,VALID,96.422,VALID,0.0339617,VALID,21.4631,VALID,12,VALID,0.660051,
2002-03-23, 00:34:01,VALID,916.407,VALID,0,VALID,96.4309,VALID,0.0169808,VALID,21.444,VALID,28,VALID,1.14627,
2002-03-23, 00:35:01,VALID,916.402,VALID,0,VALID,96.4779,VALID,0.0509425,VALID,21.4281,VALID,22,VALID,0.840144,
2002-03-23, 00:36:01,VALID,916.401,VALID,0,VALID,96.5936,VALID,0.0339617,VALID,21.4155,VALID,28,VALID,0.729307,
2002-03-23, 00:37:00,VALID,916.399,VALID,0,VALID,96.6216,VALID,0.0169808,VALID,21.4055,VALID,23,VALID,0.64442,
2002-03-23, 00:38:01,VALID,916.419,VALID,0,VALID,96.6725,VALID,0.0339617,VALID,21.3955,VALID,23,VALID,0.548931,
2002-03-23, 00:39:00,VALID,916.435,VALID,0,VALID,96.6496,VALID,0.0169808,VALID,21.3861,VALID,19,VALID,1.05194,
2002-03-23, 00:40:01,VALID,916.444,VALID,0,VALID,96.5835,VALID,0.0169808,VALID,21.363,VALID,38,VALID,0.391242,
2002-03-23, 00:41:01,VALID,916.435,VALID,0,VALID,96.6661,VALID,0.0169808,VALID,21.3697,VALID,27,VALID,0.306588,
2002-03-23, 00:42:01,VALID,916.449,VALID,0,VALID,96.6712,VALID,0,VALID,21.3705,VALID,27,VALID,0.424107,
2002-03-23, 00:43:01,VALID,916.443,VALID,0,VALID,96.6661,VALID,0.0169808,VALID,21.36,VALID,50,VALID,0.0560897,
2002-03-23, 00:44:01,VALID,916.432,VALID,0,VALID,96.6928,VALID,0.0169808,VALID,21.3538,VALID,76,VALID,0.0821496,
2002-03-23, 00:45:01,VALID,916.412,VALID,0,VALID,96.7004,VALID,0.0339617,VALID,21.3471,VALID,46,VALID,0.57284,
2002-03-23, 00:46:00,VALID,916.393,VALID,0,VALID,96.7564,VALID,0,VALID,21.3638,VALID,18,VALID,0.621199,
2002-03-23, 00:47:00,VALID,916.376,VALID,0,VALID,96.7996,VALID,0.0679233,VALID,21.35,VALID,22,VALID,0.749367,
2002-03-23, 00:48:01,VALID,916.346,VALID,0,VALID,96.7805,VALID,0,VALID,21.3444,VALID,19,VALID,0.394848,
2002-03-23, 00:49:01,VALID,916.312,VALID,0,VALID,96.867,VALID,0,VALID,21.3538,VALID,21,VALID,0.860026,
2002-03-23, 00:50:01,VALID,916.289,VALID,0,VALID,96.8518,VALID,0,VALID,21.357,VALID,26,VALID,1.29728,
2002-03-23, 00:51:01,VALID,916.274,VALID,0,VALID,96.8772,VALID,0.0169808,VALID,21.364,VALID,21,VALID,0.879645,
2002-03-23, 00:52:01,VALID,916.254,VALID,0,VALID,96.8925,VALID,0.0169808,VALID,21.3764,VALID,47,VALID,0.418973,
2002-03-23, 00:53:01,VALID,916.237,VALID,0,VALID,96.8441,VALID,0.0339617,VALID,21.3732,VALID,37,VALID,0.906044,
2002-03-23, 00:54:01,VALID,916.219,VALID,0,VALID,96.8378,VALID,0.0509425,VALID,21.3635,VALID,23,VALID,0.712838,
2002-03-23, 00:55:01,VALID,916.204,VALID,0,VALID,96.8492,VALID,0.0169808,VALID,21.3533,VALID,19,VALID,1.01336,
2002-03-23, 00:56:01,VALID,916.182,VALID,0,VALID,96.8874,VALID,0.0169808,VALID,21.3675,VALID,23,VALID,1.32981,
2002-03-23, 00:57:01,VALID,916.167,VALID,0,VALID,96.8708,VALID,0,VALID,21.374,VALID,27,VALID,1.14621,
2002-03-23, 00:58:01,VALID,916.162,VALID,0,VALID,96.9344,VALID,0,VALID,21.3802,VALID,23,VALID,1.17228,
2002-03-23, 00:59:01,VALID,916.158,VALID,0,VALID,96.9026,VALID,-0.0169808,VALID,21.3963,VALID,16,VALID,1.18348,
2002-03-23, 01:00:01,VALID,916.161,VALID,0,VALID,96.834,VALID,-0.0169808,VALID,21.4095,VALID,25,VALID,1.429,
2002-03-23, 01:01:01,VALID,916.156,VALID,0,VALID,96.7805,VALID,0,VALID,21.3934,VALID,16,VALID,1.43877,
2002-03-23, 01:02:01,VALID,916.148,VALID,0,VALID,96.7589,VALID,0,VALID,21.4001,VALID,21,VALID,1.25148,
2002-03-23, 01:03:01,VALID,916.11,VALID,0,VALID,96.6496,VALID,0.0339617,VALID,21.3831,VALID,359,VALID,1.17124,
2002-03-23, 01:04:01,VALID,916.087,VALID,0,VALID,96.5135,VALID,0.0169808,VALID,21.3508,VALID,33,VALID,1.33464,
2002-03-23, 01:05:00,VALID,916.041,VALID,0,VALID,96.5555,VALID,0.0169808,VALID,21.3581,VALID,16,VALID,1.44651,
2002-03-23, 01:06:00,VALID,916.029,VALID,0,VALID,96.5987,VALID,0,VALID,21.3508,VALID,353,VALID,0.477407,
2002-03-23, 01:07:00,VALID,916.017,VALID,0,VALID,96.614,VALID,0,VALID,21.3508,VALID,7,VALID,0.912277,
2002-03-23, 01:08:00,VALID,916.004,VALID,0,VALID,96.6877,VALID,0,VALID,21.3643,VALID,12,VALID,0.868421,
2002-03-23, 01:09:00,VALID,916.006,VALID,0,VALID,96.6941,VALID,0,VALID,21.374,VALID,14,VALID,0.691723,
2002-03-23, 01:10:00,VALID,916.025,VALID,0,VALID,96.6381,VALID,0,VALID,21.3608,VALID,15,VALID,1.06127,
2002-03-23, 01:11:00,VALID,916.007,VALID,0,VALID,96.6356,VALID,0,VALID,21.3543,VALID,17,VALID,1.76584,
2002-03-23, 01:12:00,VALID,916.029,VALID,0,VALID,96.5936,VALID,0,VALID,21.3479,VALID,14,VALID,1.42634,
2002-03-23, 01:13:00,VALID,916.019,VALID,0,VALID,96.6572,VALID,0,VALID,21.3314,VALID,14,VALID,1.01302,
2002-03-23, 01:14:00,VALID,916.043,VALID,0,VALID,96.7538,VALID,0.0169808,VALID,21.3516,VALID,21,VALID,1.05161,
2002-03-23, 01:15:00,VALID,916.037,VALID,0,VALID,96.6788,VALID,0,VALID,21.3446,VALID,10,VALID,1.7739,
2002-03-23, 01:16:00,VALID,916.049,VALID,0,VALID,96.3876,VALID,-0.0169808,VALID,21.2929,VALID,6,VALID,1.52365,
2002-03-23, 01:17:00,VALID,916.052,VALID,0,VALID,96.3825,VALID,0,VALID,21.2733,VALID,36,VALID,0.550676,
2002-03-23, 01:18:00,VALID,916.068,VALID,0,VALID,96.5186,VALID,-0.0339617,VALID,21.29,VALID,87,VALID,0.21875,
2002-03-23, 01:19:00,VALID,916.082,VALID,0,VALID,96.5466,VALID,0,VALID,21.2994,VALID,32,VALID,0.577474,
2002-03-23, 01:20:00,VALID,916.065,VALID,0,VALID,96.5911,VALID,0,VALID,21.3091,VALID,325,VALID,0.16226,
2002-03-23, 01:21:00,VALID,916.053,VALID,0,VALID,96.5949,VALID,0,VALID,21.3188,VALID,339,VALID,0.389569,
2002-03-23, 01:22:00,VALID,916.049,VALID,0,VALID,96.4894,VALID,0.0169808,VALID,21.3217,VALID,344,VALID,0.628571,
2002-03-23, 01:23:00,VALID,916.054,VALID,0,VALID,96.3126,VALID,0.0169808,VALID,21.2832,VALID,357,VALID,0.85588,
2002-03-23, 01:24:00,VALID,916.04,VALID,0,VALID,96.3215,VALID,0.0169808,VALID,21.287,VALID,13,VALID,0.782306,
2002-03-23, 01:25:00,VALID,916.029,VALID,0,VALID,96.4169,VALID,0,VALID,21.2897,VALID,11,VALID,0.553865,
2002-03-23, 01:26:00,VALID,916.009,VALID,0,VALID,96.4512,VALID,0,VALID,21.2991,VALID,18,VALID,0.630701,
2002-03-23, 01:27:00,VALID,915.986,VALID,0,VALID,96.4792,VALID,0.0169808,VALID,21.3252,VALID,16,VALID,0.781027,
2002-03-23, 01:28:00,VALID,915.956,VALID,0,VALID,96.3813,VALID,0,VALID,21.3123,VALID,358,VALID,0.65024,
2002-03-23, 01:29:00,VALID,915.925,VALID,0,VALID,96.4601,VALID,0,VALID,21.3185,VALID,32,VALID,0.973248,
2002-03-23, 01:30:00,VALID,915.903,VALID,0,VALID,96.4983,VALID,0,VALID,21.3217,VALID,16,VALID,1.03929,
2002-03-23, 01:31:00,VALID,915.89,VALID,0,VALID,96.455,VALID,0,VALID,21.322,VALID,21,VALID,1.25338,
2002-03-23, 01:32:00,VALID,915.876,VALID,0,VALID,96.5148,VALID,0,VALID,21.3094,VALID,8,VALID,1.24451,
2002-03-23, 01:33:00,VALID,915.872,VALID,0,VALID,96.614,VALID,0.0169808,VALID,21.2892,VALID,7,VALID,0.847762,
2002-03-23, 01:34:00,VALID,915.886,VALID,0,VALID,96.6839,VALID,0,VALID,21.2964,VALID,8,VALID,0.807726,
2002-03-23, 01:35:00,VALID,915.873,VALID,0,VALID,96.6941,VALID,0,VALID,21.2964,VALID,12,VALID,1.22456,
2002-03-23, 01:36:00,VALID,915.862,VALID,0,VALID,96.53,VALID,0,VALID,21.2668,VALID,6,VALID,1.07834,
2002-03-23, 01:37:00,VALID,915.862,VALID,0,VALID,96.4347,VALID,0,VALID,21.2318,VALID,17,VALID,0.983705,
2002-03-23, 01:38:00,VALID,915.84,VALID,0,VALID,96.4983,VALID,0.0169808,VALID,21.228,VALID,25,VALID,0.582648,
2002-03-23, 01:39:00,VALID,915.822,VALID,0,VALID,96.5211,VALID,0,VALID,21.228,VALID,14,VALID,0.672931,
2002-03-23, 01:40:00,VALID,915.818,VALID,0,VALID,96.4601,VALID,0.0169808,VALID,21.2052,VALID,23,VALID,0.775288,
2002-03-23, 01:41:00,VALID,915.797,VALID,0,VALID,96.5211,VALID,0.0339617,VALID,21.1922,VALID,30,VALID,0.821157,
2002-03-23, 01:42:00,VALID,915.789,VALID,0,VALID,96.6051,VALID,0.0339617,VALID,21.196,VALID,18,VALID,0.585268,
2002-03-23, 01:43:00,VALID,915.775,VALID,0,VALID,96.5885,VALID,0.0339617,VALID,21.1755,VALID,15,VALID,0.320713,
2002-03-23, 01:44:00,VALID,915.766,VALID,0,VALID,96.5847,VALID,0.0169808,VALID,21.1693,VALID,20,VALID,0.78267,
2002-03-23, 01:45:00,VALID,915.737,VALID,0,VALID,96.5428,VALID,0,VALID,21.1604,VALID,15,VALID,1.3426,
2002-03-23, 01:46:00,VALID,915.727,VALID,0,VALID,96.5097,VALID,0.0339617,VALID,21.1413,VALID,12,VALID,1.09333,
2002-03-23, 01:47:00,VALID,915.714,VALID,0,VALID,96.5911,VALID,0.0509425,VALID,21.1214,VALID,21,VALID,0.720861,
2002-03-23, 01:48:00,VALID,915.714,VALID,0,VALID,96.6,VALID,0.0339617,VALID,21.1214,VALID,1,VALID,1.39506,
2002-03-23, 01:49:00,VALID,915.687,VALID,0,VALID,96.5428,VALID,0.0169808,VALID,21.109,VALID,5,VALID,1.17057,
2002-03-23, 01:50:00,VALID,915.666,VALID,0,VALID,96.6102,VALID,0.0849042,VALID,21.1085,VALID,23,VALID,0.657853,
2002-03-23, 01:51:00,VALID,915.659,VALID,0,VALID,96.6686,VALID,0.0169808,VALID,21.1217,VALID,21,VALID,0.288007,
2002-03-23, 01:52:00,VALID,915.646,VALID,0,VALID,96.7411,VALID,0.0169808,VALID,21.1311,VALID,17,VALID,0.35558,
2002-03-23, 01:53:00,VALID,915.643,VALID,0,VALID,96.7119,VALID,0,VALID,21.1478,VALID,16,VALID,0.252467,
2002-03-23, 01:54:00,VALID,915.642,VALID,0,VALID,96.6788,VALID,0.0339617,VALID,21.1373,VALID,22,VALID,0.37141,
2002-03-23, 01:55:00,VALID,915.648,VALID,0,VALID,96.6598,VALID,0.0339617,VALID,21.1508,VALID,19,VALID,0.887541,
2002-03-23, 01:56:00,VALID,915.674,VALID,0,VALID,96.6458,VALID,0.0169808,VALID,21.1443,VALID,15,VALID,1.01879,
2002-03-23, 01:57:00,VALID,915.685,VALID,0,VALID,96.5873,VALID,0,VALID,21.1411,VALID,1,VALID,0.958259,
2002-03-23, 01:58:00,VALID,915.678,VALID,0,VALID,96.5262,VALID,0.0169808,VALID,21.1316,VALID,8,VALID,1.123,
2002-03-23, 01:59:00,VALID,915.678,VALID,0,VALID,96.5224,VALID,-0.0169808,VALID,21.1249,VALID,356,VALID,0.620028,
2002-03-23, 02:00:00,VALID,915.65,VALID,0,VALID,96.4792,VALID,0.0169808,VALID,21.1252,VALID,20,VALID,0.683134,
2002-03-23, 02:01:00,VALID,915.626,VALID,0,VALID,96.4754,VALID,0,VALID,21.1184,VALID,23,VALID,0.898226,
2002-03-23, 02:02:00,VALID,915.605,VALID,0,VALID,96.4258,VALID,0,VALID,21.1026,VALID,17,VALID,0.873733,
2002-03-23, 02:03:00,VALID,915.61,VALID,0,VALID,96.4385,VALID,0,VALID,21.0964,VALID,21,VALID,0.586149,
2002-03-23, 02:04:00,VALID,915.601,VALID,0,VALID,96.4347,VALID,0,VALID,21.0864,VALID,20,VALID,0.627604,
2002-03-23, 02:05:00,VALID,915.595,VALID,0,VALID,96.38,VALID,0,VALID,21.0732,VALID,15,VALID,0.882161,
2002-03-23, 02:06:00,VALID,915.595,VALID,0,VALID,96.3584,VALID,0,VALID,21.0538,VALID,21,VALID,0.899071,
2002-03-23, 02:07:00,VALID,915.585,VALID,0,VALID,96.3609,VALID,-0.0169808,VALID,21.0414,VALID,26,VALID,0.866518,
2002-03-23, 02:08:00,VALID,915.579,VALID,0,VALID,96.38,VALID,-0.0169808,VALID,21.0282,VALID,19,VALID,0.638158,
2002-03-23, 02:09:00,VALID,915.591,VALID,0,VALID,96.3902,VALID,0,VALID,21.0317,VALID,16,VALID,0.490287,
2002-03-23, 02:10:00,VALID,915.596,VALID,0,VALID,96.3584,VALID,-0.0169808,VALID,21.0088,VALID,359,VALID,0.694079,
2002-03-23, 02:11:00,VALID,915.602,VALID,0,VALID,96.3762,VALID,-0.0339617,VALID,20.9994,VALID,5,VALID,0.826436,
2002-03-23, 02:12:00,VALID,915.587,VALID,0,VALID,96.3571,VALID,0,VALID,20.9865,VALID,17,VALID,0.420536,
2002-03-23, 02:13:00,VALID,915.584,VALID,0,VALID,96.3647,VALID,0,VALID,20.9701,VALID,17,VALID,0.00641026,
2002-03-23, 02:14:00,VALID,915.574,VALID,0,VALID,96.4042,VALID,-0.0339617,VALID,20.9504,VALID,17,VALID,0,
2002-03-23, 02:15:00,VALID,915.567,VALID,0,VALID,96.4105,VALID,-0.0339617,VALID,20.9547,VALID,17,VALID,0,
2002-03-23, 02:16:00,VALID,915.561,VALID,0,VALID,96.4525,VALID,0,VALID,20.938,VALID,17,VALID,0,
2002-03-23, 02:17:00,VALID,915.549,VALID,0,VALID,96.4995,VALID,0,VALID,20.9345,VALID,17,VALID,0,
2002-03-23, 02:18:00,VALID,915.543,VALID,0,VALID,96.4855,VALID,0,VALID,20.9219,VALID,17,VALID,0,
2002-03-23, 02:19:00,VALID,915.538,VALID,0,VALID,96.4436,VALID,0,VALID,20.902,VALID,17,VALID,0,
2002-03-23, 02:20:00,VALID,915.527,VALID,0,VALID,96.2808,VALID,-0.0169808,VALID,20.8602,VALID,17,VALID,0,
2002-03-23, 02:21:00,VALID,915.517,VALID,0,VALID,96.2414,VALID,-0.0169808,VALID,20.8055,VALID,17,VALID,0.342061,
2002-03-23, 02:22:00,VALID,915.511,VALID,0,VALID,96.3088,VALID,-0.0169808,VALID,20.7867,VALID,17,VALID,0.465625,
2002-03-23, 02:23:00,VALID,915.502,VALID,0,VALID,96.3279,VALID,-0.0339617,VALID,20.7374,VALID,16,VALID,0.418997,
2002-03-23, 02:24:00,VALID,915.491,VALID,0,VALID,96.469,VALID,0,VALID,20.728,VALID,16,VALID,0.314611,
2002-03-23, 02:25:00,VALID,915.47,VALID,0,VALID,96.6483,VALID,-0.0509425,VALID,20.7253,VALID,16,VALID,0.353824,
2002-03-23, 02:26:00,VALID,915.461,VALID,0,VALID,96.8009,VALID,-0.0509425,VALID,20.7315,VALID,16,VALID,0.195946,
2002-03-23, 02:27:00,VALID,915.458,VALID,0,VALID,96.9319,VALID,-0.0169808,VALID,20.7482,VALID,16,VALID,0,
2002-03-23, 02:28:00,VALID,915.457,VALID,0,VALID,96.9484,VALID,-0.0169808,VALID,20.7676,VALID,16,VALID,0,
2002-03-23, 02:29:00,VALID,915.452,VALID,0,VALID,96.923,VALID,-0.0509425,VALID,20.7541,VALID,20,VALID,0.169508,
2002-03-23, 02:30:00,VALID,915.455,VALID,0,VALID,96.9624,VALID,-0.0339617,VALID,20.7581,VALID,40,VALID,0.202206,
2002-03-23, 02:31:00,VALID,915.447,VALID,0,VALID,96.9777,VALID,-0.0339617,VALID,20.7482,VALID,41,VALID,0.282728,
2002-03-23, 02:32:00,VALID,915.442,VALID,0,VALID,97.0514,VALID,-0.0339617,VALID,20.7415,VALID,46,VALID,0.312711,
2002-03-23, 02:33:00,VALID,915.428,VALID,0,VALID,97.1099,VALID,0,VALID,20.742,VALID,70,VALID,0.337627,
2002-03-23, 02:34:00,VALID,915.418,VALID,0,VALID,97.1531,VALID,0,VALID,20.7377,VALID,79,VALID,0.37066,
2002-03-23, 02:35:00,VALID,915.408,VALID,0,VALID,97.1786,VALID,-0.0169808,VALID,20.738,VALID,77,VALID,0.335136,
2002-03-23, 02:36:00,VALID,915.396,VALID,0,VALID,97.2243,VALID,-0.0169808,VALID,20.7444,VALID,76,VALID,0.072424,
2002-03-23, 02:37:00,VALID,915.375,VALID,0,VALID,97.1862,VALID,0,VALID,20.7407,VALID,76,VALID,0,
2002-03-23, 02:38:00,VALID,915.358,VALID,0,VALID,97.1201,VALID,-0.0849042,VALID,20.7417,VALID,76,VALID,0.00102796,
2002-03-23, 02:39:00,VALID,915.334,VALID,0,VALID,97.1074,VALID,-0.0509425,VALID,20.7288,VALID,76,VALID,0,
2002-03-23, 02:40:00,VALID,915.318,VALID,0,VALID,97.0946,VALID,-0.0169808,VALID,20.7054,VALID,76,VALID,0.000411184,
2002-03-23, 02:41:00,VALID,915.307,VALID,0,VALID,97.1315,VALID,0,VALID,20.7119,VALID,75,VALID,0.0747466,
2002-03-23, 02:42:00,VALID,915.293,VALID,0,VALID,97.1633,VALID,-0.0169808,VALID,20.7353,VALID,75,VALID,0.0287946,
2002-03-23, 02:43:00,VALID,915.27,VALID,0,VALID,97.1938,VALID,-0.0169808,VALID,20.742,VALID,75,VALID,0.00480769,
2002-03-23, 02:44:00,VALID,915.249,VALID,0,VALID,97.115,VALID,0,VALID,20.7218,VALID,70,VALID,0.246922,
2002-03-23, 02:45:00,VALID,915.232,VALID,0,VALID,97.0959,VALID,-0.0169808,VALID,20.7288,VALID,15,VALID,0.517233,
2002-03-23, 02:46:00,VALID,915.221,VALID,0,VALID,97.012,VALID,-0.0169808,VALID,20.735,VALID,7,VALID,0.360431,
2002-03-23, 02:47:00,VALID,915.23,VALID,0,VALID,96.9993,VALID,0,VALID,20.7188,VALID,9,VALID,0.142103,
2002-03-23, 02:48:00,VALID,915.238,VALID,0,VALID,96.9484,VALID,0,VALID,20.7256,VALID,8,VALID,0,
2002-03-23, 02:49:00,VALID,915.255,VALID,0,VALID,96.9459,VALID,0,VALID,20.7119,VALID,8,VALID,0,
2002-03-23, 02:50:00,VALID,915.275,VALID,0,VALID,96.9586,VALID,0,VALID,20.7285,VALID,8,VALID,0.0655048,
2002-03-23, 02:51:00,VALID,915.275,VALID,0,VALID,96.8721,VALID,-0.0509425,VALID,20.7256,VALID,8,VALID,0.227829,
2002-03-23, 02:52:00,VALID,915.272,VALID,0,VALID,96.8187,VALID,-0.0169808,VALID,20.7353,VALID,9,VALID,0.242188,
2002-03-23, 02:53:00,VALID,915.27,VALID,0,VALID,96.764,VALID,-0.0339617,VALID,20.7256,VALID,8,VALID,0.274877,
2002-03-23, 02:54:00,VALID,915.257,VALID,0,VALID,96.7221,VALID,0,VALID,20.7226,VALID,8,VALID,0.162584,
2002-03-23, 02:55:00,VALID,915.245,VALID,0,VALID,96.7513,VALID,0,VALID,20.7059,VALID,8,VALID,0.125617,
2002-03-23, 02:56:00,VALID,915.233,VALID,0,VALID,96.7666,VALID,0.0339617,VALID,20.7054,VALID,12,VALID,0.561867,
2002-03-23, 02:57:00,VALID,915.229,VALID,0,VALID,96.7971,VALID,0,VALID,20.7029,VALID,21,VALID,0.839955,
2002-03-23, 02:58:00,VALID,915.206,VALID,0,VALID,96.8823,VALID,0.0339617,VALID,20.7054,VALID,22,VALID,0.671675,
2002-03-23, 02:59:00,VALID,915.199,VALID,0,VALID,96.8454,VALID,0,VALID,20.7121,VALID,25,VALID,0.424006,
2002-03-23, 03:00:00,VALID,915.188,VALID,0,VALID,96.7755,VALID,0.0339617,VALID,20.6895,VALID,27,VALID,0.547794,
2002-03-23, 03:01:00,VALID,915.175,VALID,0,VALID,96.8111,VALID,0.0169808,VALID,20.6803,VALID,40,VALID,0.683488,
2002-03-23, 03:02:00,VALID,915.166,VALID,0,VALID,96.8988,VALID,0.0169808,VALID,20.6903,VALID,47,VALID,0.710093,
2002-03-23, 03:03:00,VALID,915.14,VALID,0,VALID,96.8925,VALID,0.0169808,VALID,20.6932,VALID,45,VALID,0.46516,
2002-03-23, 03:04:00,VALID,915.121,VALID,0,VALID,96.7958,VALID,0.0339617,VALID,20.6833,VALID,45,VALID,0.224609,
2002-03-23, 03:05:00,VALID,915.112,VALID,0,VALID,96.8085,VALID,0,VALID,20.6739,VALID,45,VALID,0.00480769,
2002-03-23, 03:06:00,VALID,915.094,VALID,0,VALID,96.8111,VALID,0.0339617,VALID,20.6801,VALID,45,VALID,0,
2002-03-23, 03:07:00,VALID,915.093,VALID,0,VALID,96.7971,VALID,0,VALID,20.6739,VALID,45,VALID,0.0194196,
2002-03-23, 03:08:00,VALID,915.091,VALID,0,VALID,96.7513,VALID,0.0169808,VALID,20.6771,VALID,45,VALID,0.10588,
2002-03-23, 03:09:00,VALID,915.095,VALID,0,VALID,96.7411,VALID,0.0169808,VALID,20.6636,VALID,45,VALID,0,
2002-03-23, 03:10:00,VALID,915.088,VALID,0,VALID,96.7678,VALID,0.0169808,VALID,20.6572,VALID,45,VALID,0,
2002-03-23, 03:11:00,VALID,915.085,VALID,0,VALID,96.7984,VALID,0.0169808,VALID,20.6472,VALID,45,VALID,0,
2002-03-23, 03:12:00,VALID,915.087,VALID,0,VALID,96.8263,VALID,0.0169808,VALID,20.6636,VALID,46,VALID,0,
2002-03-23, 03:13:00,VALID,915.081,VALID,0,VALID,96.7602,VALID,0,VALID,20.641,VALID,45,VALID,0,
2002-03-23, 03:14:00,VALID,915.062,VALID,0,VALID,96.7182,VALID,0.0339617,VALID,20.6313,VALID,46,VALID,0.0279356,
2002-03-23, 03:15:00,VALID,915.077,VALID,0,VALID,96.7577,VALID,0.0339617,VALID,20.6189,VALID,46,VALID,0,
2002-03-23, 03:16:00,VALID,915.086,VALID,0,VALID,96.8568,VALID,0,VALID,20.6122,VALID,46,VALID,0,
2002-03-23, 03:17:00,VALID,915.109,VALID,0,VALID,96.8937,VALID,0,VALID,20.6127,VALID,46,VALID,0,
2002-03-23, 03:18:00,VALID,915.126,VALID,0,VALID,96.8403,VALID,0,VALID,20.603,VALID,46,VALID,0,
2002-03-23, 03:19:00,VALID,915.127,VALID,0,VALID,96.7907,VALID,0.0169808,VALID,20.5767,VALID,46,VALID,0,
2002-03-23, 03:20:00,VALID,915.13,VALID,0,VALID,96.8034,VALID,0.0169808,VALID,20.5476,VALID,46,VALID,0,
2002-03-23, 03:21:00,VALID,915.125,VALID,0,VALID,96.8467,VALID,0,VALID,20.5578,VALID,46,VALID,0,
2002-03-23, 03:22:00,VALID,915.125,VALID,0,VALID,96.9064,VALID,0.0339617,VALID,20.5438,VALID,46,VALID,0,
2002-03-23, 03:23:00,VALID,915.119,VALID,0,VALID,96.8276,VALID,0.0169808,VALID,20.5317,VALID,46,VALID,0,
2002-03-23, 03:24:00,VALID,915.113,VALID,0,VALID,96.8123,VALID,0.0339617,VALID,20.4991,VALID,46,VALID,0,
2002-03-23, 03:25:00,VALID,915.096,VALID,0,VALID,96.9446,VALID,0,VALID,20.5188,VALID,46,VALID,0,
2002-03-23, 03:26:00,VALID,915.088,VALID,0,VALID,97.0489,VALID,0,VALID,20.5185,VALID,46,VALID,0,
2002-03-23, 03:27:00,VALID,915.086,VALID,0,VALID,97.0845,VALID,0,VALID,20.519,VALID,46,VALID,0,
2002-03-23, 03:28:00,VALID,915.081,VALID,0,VALID,97.0298,VALID,0.0169808,VALID,20.5031,VALID,45,VALID,0,
2002-03-23, 03:29:00,VALID,915.1,VALID,0,VALID,96.998,VALID,0.0169808,VALID,20.4795,VALID,43,VALID,0,
2002-03-23, 03:30:00,VALID,915.099,VALID,0,VALID,96.9281,VALID,0,VALID,20.4507,VALID,43,VALID,0,
2002-03-23, 03:31:00,VALID,915.109,VALID,0,VALID,96.5326,VALID,0,VALID,20.3672,VALID,43,VALID,0,
2002-03-23, 03:32:00,VALID,915.101,VALID,0,VALID,96.2439,VALID,0,VALID,20.267,VALID,43,VALID,0,
2002-03-23, 03:33:00,VALID,915.107,VALID,0,VALID,96.2617,VALID,0,VALID,20.1898,VALID,43,VALID,0,
2002-03-23, 03:34:00,VALID,915.068,VALID,0,VALID,96.3673,VALID,0,VALID,20.1338,VALID,34,VALID,0.310113,
2002-03-23, 03:35:00,VALID,915.053,VALID,0,VALID,96.5084,VALID,0,VALID,20.1184,VALID,27,VALID,0.438301,
2002-03-23, 03:36:00,VALID,915.027,VALID,0,VALID,96.6801,VALID,0.0339617,VALID,20.0918,VALID,27,VALID,0.314189,
2002-03-23, 03:37:00,VALID,914.99,VALID,0,VALID,96.8492,VALID,0,VALID,20.0824,VALID,27,VALID,0.328125,
2002-03-23, 03:38:00,VALID,914.955,VALID,0,VALID,96.8746,VALID,-0.0169808,VALID,20.0667,VALID,27,VALID,0.471217,
2002-03-23, 03:39:00,VALID,914.906,VALID,0,VALID,96.9395,VALID,0,VALID,20.0342,VALID,27,VALID,0.378167,